Flag for U.S.A. Weather past 2 weeks in Lafayette, Louisiana, U.S.A.

Now
75 °F

Thundershowers. Fog.


Feels Like: 73 °F
Forecast: 72 / 86 °F
Wind: 15 mph from North

Location: Lafayette Regional Airport

Current Time: May 27, 2015 at 9:39:26 AM

Latest Report: May 27, 2015 at 8:53 AM


Visibility: 5 mi

Pressure: 30.18 "Hg

Humidity: 96%

Dew point: 74 °F

Location of LafayetteLocation

Historic Weather in Lafayette — Graph

°F

Lafayette temperature yesterday

Maximum temperature yesterday: 86 °F (at 3:53 PM)
Minimum temperature yesterday: 65 °F (at 1:53 AM)
Average temperature yesterday: 75 °F

Past Weeks' High & Low Weather Summary

 TemperatureHumidityPressure
High88 °F (May 14, 2:53 PM)100% (May 19, 7:53 AM)30.20 "Hg (May 19, 7:53 AM)
Low63 °F (May 22, 3:53 AM)48% (May 14, 3:53 PM)29.93 "Hg (May 25, 5:53 PM)
Average76 °F84%30.07 "Hg
* Reported May 12 8:03 AM — May 27 7:53 AM, Lafayette, Weather by CustomWeather, © 2015

Note: Actual official high and low records may vary slightly from our data, if they occured in-between our weather recording intervals... More about our weather records

Advertising

Lafayette weather history for previous 24 hours

 ConditionsComfort  
Time TempWeatherWind HumidityBarometerVisibility
7:53 AM
Wed, May 27
75 °FFog.No wind96%30.13 "Hg5 mi
6:53 AM74 °FFog.No wind97%30.08 "Hg3 mi
5:53 AM74 °FLow clouds.No wind97%30.06 "Hg10 mi
4:53 AM74 °FClear.3 mph94%30.04 "Hg10 mi
3:53 AM74 °FClear.No wind94%30.05 "Hg10 mi
2:53 AM74 °FClear.No wind94%30.06 "Hg10 mi
1:53 AM74 °FPassing clouds.No wind94%30.06 "Hg10 mi
12:53 AM75 °FPassing clouds.No wind90%30.06 "Hg10 mi
11:53 PM
Tue, May 26
77 °FClear.3 mph88%30.05 "Hg10 mi
10:53 PM78 °FPassing clouds.5 mph84%30.07 "Hg10 mi
9:53 PM79 °FPassing clouds.5 mph82%30.08 "Hg10 mi
8:53 PM80 °FBroken clouds.3 mph76%30.07 "Hg10 mi
7:53 PM82 °FOvercast.3 mph72%30.05 "Hg10 mi
6:53 PM84 °FSunny.3 mph63%30.04 "Hg10 mi
5:53 PM86 °FSunny.6 mph57%30.04 "Hg10 mi
4:53 PM86 °FPassing clouds.9 mph63%30.05 "Hg10 mi
3:53 PM86 °FScattered clouds.3 mph55%30.06 "Hg10 mi
2:53 PM84 °FSunny.5 mph61%30.06 "Hg10 mi
1:53 PM84 °FSunny.No wind61%30.06 "Hg10 mi
12:53 PM83 °FSunny.6 mph61%30.05 "Hg10 mi
11:53 AM79 °FSunny.3 mph67%30.06 "Hg10 mi
10:53 AM77 °FSunny.No wind74%30.06 "Hg10 mi
9:53 AM73 °FSunny.6 mph79%30.06 "Hg10 mi
Weather by CustomWeather, © 2015

See weather overviewHow to use our weather pages